This is the latest recevied weather packets stored in our database for station/object OE6ACM-10. If no packets are shown the sender has not sent any weather packets the latest 10 day(s).
| Time | Temp. | Humidity | Pressure | Rain* | Wind** | Luminosity | Snow |
|---|---|---|---|---|---|---|---|
| 1787989011 | 21.67° C | 100% | 928.5 hPa | - | - | - | - |
| 1787988711 | 21.67° C | 100% | 928.6 hPa | - | - | - | - |
| 1787988411 | 21.11° C | 100% | 928.6 hPa | - | - | - | - |
| 1787988111 | 21.67° C | 100% | 928.6 hPa | - | - | - | - |
| 1787987811 | 21.67° C | 100% | 928.5 hPa | - | - | - | - |
| 1787987511 | 21.11° C | 100% | 928.6 hPa | - | - | - | - |
| 1787987211 | 21.11° C | 100% | 928.4 hPa | - | - | - | - |
| 1787986911 | 21.11° C | 100% | 928.2 hPa | - | - | - | - |
| 1787986611 | 20.56° C | 100% | 928.5 hPa | - | - | - | - |
| 1787986311 | 20.56° C | 100% | 928.4 hPa | - | - | - | - |
| 1787986011 | 20.56° C | 100% | 928.3 hPa | - | - | - | - |
| 1787985711 | 20° C | 100% | 928.2 hPa | - | - | - | - |
| 1787985411 | 20° C | 100% | 928.4 hPa | - | - | - | - |
| 1787985111 | 19.44° C | 100% | 928.3 hPa | - | - | - | - |
| 1787984195 | 19.44° C | 100% | 928.2 hPa | - | - | - | - |
| 1787983895 | 18.89° C | 100% | 928.3 hPa | - | - | - | - |
| 1787965359 | 20.56° C | 100% | 927.9 hPa | - | - | - | - |
| 1787965059 | 20.56° C | 100% | 928 hPa | - | - | - | - |
| 1787964759 | 20.56° C | 100% | 928.2 hPa | - | - | - | - |
| 1787964459 | 20.56° C | 100% | 927.9 hPa | - | - | - | - |
| 1787964159 | 20.56° C | 100% | 928 hPa | - | - | - | - |
| 1787963859 | 21.11° C | 100% | 928.1 hPa | - | - | - | - |
| 1787963559 | 21.11° C | 100% | 927.8 hPa | - | - | - | - |
| 1787963259 | 21.11° C | 100% | 927.7 hPa | - | - | - | - |
| 1787962959 | 21.11° C | 100% | 927.6 hPa | - | - | - | - |
* Rain since midnight (hover to see other rain measurements)
** Current wind speed in m/s (hover to see current wind gust speed)